User: anonymous   Login
Location: Champignolles
(47.0543°N, 4.5663°E)
Time: 16:20:38
(UTC+00:00)
Language:

Meteor 1-5 Rocket - Orbit

View from above orbital plane
View from above orbital plane
View from above satellite
View from above satellite

Ground track
Ground track

The orbit data is extracted from the following two-line orbital elements,

1  4420U 70047B   21063.19249751 -.00000159  00000-0 -90357-4 0  9993
2  4420  81.2270  86.7047 0087201 354.1961   5.8191 14.12091417609875
Epoch (UTC): 04 March 2021 04:37:11
Eccentricity: 0.0087201
inclination: 81.2270°
perigee height: 789 km
apogee height: 915 km
right ascension of ascending node: 86.7047°
argument of perigee: 354.1961°
revolutions per day: 14.12091417
mean anomaly at epoch: 5.8191°
orbit number at epoch: 60987

The dashed part of the orbit path shows where the satellite is in the earth's shadow,  

DLR